Flag for Australia Weather past 2 weeks in Canberra, Australian Capital Territory, Australia

Now
70 °F

Passing clouds.


Feels Like: 70 °F
Forecast: 56 / 76 °F
Wind: 7 mph from Northwest

Location: Canberra Airport

Current Time: Apr 1, 2015 at 7:41:09 PM

Latest Report: Apr 1, 2015 at 7:00 PM


Visibility: N/A

Pressure: 30.09 "Hg

Humidity: 50%

Dew point: 50 °F

Location of CanberraLocation

Historic Weather in Canberra — Graph

°F

Canberra temperature yesterday

Maximum temperature yesterday: 77 °F (at 2:00 PM)
Minimum temperature yesterday: 46 °F (at 4:30 AM)
Average temperature yesterday: 62 °F

Past Weeks' High & Low Weather Summary

 TemperatureHumidityPressure
High90 °F (Mar 20, 1:30 PM)100% (Mar 23, 2:30 AM)30.36 "Hg (Mar 23, 2:30 AM)
Low34 °F (Mar 28, 7:30 AM)18% (Mar 20, 5:00 PM)29.65 "Hg (Mar 18, 4:30 PM)
Average61 °F63%30.09 "Hg
* Reported Mar 17 6:00 PM — Apr 1 6:00 PM, Canberra, Weather by CustomWeather, © 2015

Note: Actual official high and low records may vary slightly from our data, if they occured in-between our weather recording intervals... More about our weather records

Advertising

Canberra weather history for previous 24 hours

 ConditionsComfort  
Time TempWeatherWind HumidityBarometerVisibility
6:00 PM
Wed, Apr 1
75 °FPartly sunny.10 mph41%30.09 "HgN/A
5:30 PM77 °FPartly sunny.10 mph39%30.09 "HgN/A
5:00 PM79 °FPartly sunny.7 mph39%30.09 "HgN/A
4:30 PM77 °FScattered clouds.12 mph42%30.09 "HgN/A
4:00 PM77 °FScattered clouds.13 mph42%30.09 "HgN/A
3:30 PM79 °FScattered clouds.8 mph39%30.12 "HgN/A
3:00 PM79 °FScattered clouds.12 mph42%30.12 "HgN/A
2:00 PM75 °FPassing clouds.7 mph50%30.15 "HgN/A
1:30 PM73 °FPassing clouds.7 mph53%30.18 "HgN/A
1:00 PM70 °FScattered clouds.6 mph57%30.21 "HgN/A
12:30 PM70 °FScattered clouds.6 mph57%30.21 "HgN/A
12:00 PM68 °FPartly sunny.7 mph60%30.24 "HgN/A
11:30 AM68 °FScattered clouds.7 mph60%30.24 "HgN/A
11:00 AM68 °FScattered clouds.8 mph64%30.27 "HgN/A
10:30 AM64 °FScattered clouds.5 mph68%30.27 "HgN/A
10:00 AM63 °FScattered clouds.5 mph73%30.27 "HgN/A
9:30 AM57 °FPartly sunny.No wind88%30.30 "HgN/A
9:00 AM54 °FPartly sunny.5 mph94%30.30 "HgN/A
8:00 AM52 °FPartly sunny.7 mph94%30.30 "HgN/A
7:00 AM50 °FFog.5 mph100%30.27 "HgN/A
6:00 AM46 °FFog.1 mph100%30.27 "HgN/A
5:00 AM48 °FFog.No wind94%30.27 "HgN/A
4:30 AM50 °FLight fog.2 mph100%30.27 "HgN/A
4:03 AM48 °FClear.3 mph100%30.30 "Hg1 mi
3:30 AM52 °FClear.5 mph94%30.30 "Hg6 mi
3:00 AM52 °FClear.6 mph100%30.30 "HgN/A
2:30 AM52 °FPassing clouds.6 mph94%30.30 "HgN/A
2:00 AM54 °FOvercast.3 mph94%30.33 "HgN/A
1:00 AM54 °FClear.3 mph94%30.33 "HgN/A
12:30 AM54 °FClear.5 mph100%30.33 "HgN/A
12:00 AM52 °FClear.6 mph94%30.33 "HgN/A
11:00 PM
Tue, Mar 31
57 °FClear.7 mph82%30.33 "HgN/A
10:00 PM59 °FClear.5 mph82%30.33 "HgN/A
9:00 PM63 °FClear.9 mph73%30.30 "HgN/A
8:30 PM64 °FPassing clouds.7 mph68%30.30 "HgN/A
8:00 PM64 °FPassing clouds.7 mph64%30.30 "HgN/A
7:00 PM68 °FPassing clouds.12 mph56%30.27 "HgN/A
Weather by CustomWeather, © 2015

See weather overviewHow to use our weather pages